Location: Unspecified
(49.9820°N, 20.4363°E)
Time: 13:44:59
(UTC+02:00)

ISS - Pass Details

Date: 22 May 2018
Orbit: 402 x 407 km, 51.6° (Epoch: 20 May)

Event Time Altitude Azimuth Distance (km) Brightness Sun altitude
Rises 03:05:52 0° 287° (WNW) 2,320 -0.2 -12.2°
Reaches altitude 10° 03:08:02 10° 278° (W) 1,458 -1.3 -11.9°
Maximum altitude 03:11:03 35° 211° (SSW) 665 -3.3 -11.7°
Drops below altitude 10° 03:14:04 10° 143° (SE) 1,451 -1.2 -11.4°
Sets 03:16:14 0° 134° (SE) 2,307 -0.1 -11.1°
